Liberal, KS

3:47 AM CDT on July 25, 2017 (GMT -0500)
Liberal Municipal

Weather History for KLBL - August, 2014

Change the Weather History Date:

Thursday, August 28, 2014

  Actual Average Record
Temperature  
Mean Temperature 76 °F -  
Max Temperature 87 °F 89 °F 104 °F (1990)
Min Temperature 64 °F 63 °F 51 °F (1992)
Cooling Degree Days 10    
Growing Degree Days 26 (Base 50)    
Moisture  
Dew Point 59 °F    
Average Humidity 60    
Maximum Humidity 83    
Minimum Humidity 29    
Precipitation  
Precipitation 0.00 in - - ()
Sea Level Pressure  
Sea Level Pressure 29.97 in    
Wind  
Wind Speed 11 mph (West)    
Max Wind Speed 17 mph    
Max Gust Speed 23 mph    
Visibility 10 miles    
Events Thunderstorm    
Averages and records for this station are not official NWS values.
T = Trace of Precipitation, MM = Missing Value Source: NWS Daily Summary

Daily Weather History Graph

Daily Weather History Graph

Search for Another Location

Airport or City:

Trip Planner

Search our weather history database for the weather conditions in past years. The results will help you decide how hot, cold, wet, or windy it might be!

Date:

Astronomy

Aug. 28, 2014 Rise Set
Actual Time 7:11 AM CDT 8:18 PM CDT
Civil Twilight 6:44 AM CDT 8:44 PM CDT
Nautical Twilight 6:12 AM CDT 9:16 PM CDT
Astronomical Twilight 5:39 AM CDT 9:49 PM CDT
Moon 10:00 AM CDT (8/28) 9:48 PM CDT (8/28)
Length of Visible Light 14h 00m
Length of Day
13h 06m
Waxing Crescent, 9% of the Moon is Illuminated
Aug 28
Waxing Crescent
Sep 2
First Quarter
Sep 8
Full
Sep 15
Last Quarter
Sep 24
New

Hourly Weather History & Observations

Time (CDT) Temp. Heat Index Dew Point Humidity Pressure Visibility Wind Dir Wind Speed Gust Speed Precip Events Conditions
12:15 AM 71.6 °F - 62.6 °F 73% 30.01 in 10.0 mi South 10.4 mph - N/A   Clear
12:35 AM 71.6 °F - 62.6 °F 73% 30.01 in 10.0 mi South 12.7 mph - N/A   Clear
12:55 AM 71.6 °F - 62.6 °F 73% 30.01 in 10.0 mi South 11.5 mph - N/A   Clear
1:15 AM 69.8 °F - 60.8 °F 73% 30.01 in 10.0 mi South 11.5 mph - N/A   Clear
1:35 AM 69.8 °F - 62.6 °F 78% 30.00 in 10.0 mi South 11.5 mph - N/A   Clear
1:55 AM 69.8 °F - 60.8 °F 73% 30.00 in 10.0 mi South 10.4 mph - N/A   Clear
2:15 AM 69.8 °F - 60.8 °F 73% 30.00 in 10.0 mi South 12.7 mph - N/A   Clear
2:35 AM 69.8 °F - 60.8 °F 73% 29.99 in 10.0 mi SSW 11.5 mph - N/A   Clear
2:55 AM 69.8 °F - 60.8 °F 73% 29.98 in 10.0 mi South 10.4 mph - N/A   Clear
3:15 AM 69.8 °F - 60.8 °F 73% 29.98 in 10.0 mi South 13.8 mph - N/A   Clear
3:35 AM 69.8 °F - 60.8 °F 73% 29.97 in 10.0 mi South 13.8 mph - N/A   Clear
3:55 AM 69.8 °F - 60.8 °F 73% 29.97 in 10.0 mi South 13.8 mph - N/A   Clear
4:15 AM 69.8 °F - 60.8 °F 73% 29.97 in 10.0 mi South 11.5 mph - N/A   Clear
4:35 AM 69.8 °F - 60.8 °F 73% 29.97 in 10.0 mi SSW 10.4 mph - N/A   Clear
4:55 AM 69.8 °F - 60.8 °F 73% 29.97 in 10.0 mi SSW 10.4 mph - N/A   Clear
5:15 AM 68.0 °F - 60.8 °F 78% 29.97 in 10.0 mi South 9.2 mph - N/A   Clear
5:35 AM 66.2 °F - 60.8 °F 83% 29.97 in 10.0 mi SSW 9.2 mph - N/A   Clear
5:55 AM 68.0 °F - 60.8 °F 78% 29.97 in 10.0 mi SSW 10.4 mph - N/A   Clear
6:15 AM 68.0 °F - 60.8 °F 78% 29.96 in 10.0 mi SSW 12.7 mph - N/A   Clear
6:35 AM 68.0 °F - 60.8 °F 78% 29.96 in 10.0 mi SW 11.5 mph - N/A   Clear
6:55 AM 66.2 °F - 60.8 °F 83% 29.96 in 10.0 mi SW 10.4 mph - N/A   Clear
7:15 AM 66.2 °F - 59.0 °F 78% 29.96 in 10.0 mi SW 10.4 mph - N/A   Clear
7:35 AM 64.4 °F - 57.2 °F 77% 29.96 in 10.0 mi SW 9.2 mph - N/A   Clear
7:55 AM 64.4 °F - 57.2 °F 77% 29.96 in 10.0 mi SW 6.9 mph - N/A   Clear
8:15 AM 64.4 °F - 57.2 °F 77% 29.96 in 10.0 mi WSW 10.4 mph - N/A   Clear
8:35 AM 66.2 °F - 59.0 °F 78% 29.97 in 10.0 mi WSW 12.7 mph - N/A   Clear
8:55 AM 66.2 °F - 59.0 °F 78% 29.97 in 10.0 mi West 12.7 mph - N/A   Clear
9:15 AM 68.0 °F - 60.8 °F 78% 29.98 in 10.0 mi West 11.5 mph - N/A   Clear
9:35 AM 68.0 °F - 60.8 °F 78% 29.99 in 10.0 mi WNW 15.0 mph - N/A   Mostly Cloudy
9:55 AM 69.8 °F - 60.8 °F 73% 29.99 in 10.0 mi West 16.1 mph - N/A   Overcast
10:15 AM 71.6 °F - 62.6 °F 73% 30.00 in 10.0 mi WNW 15.0 mph - N/A   Scattered Clouds
10:35 AM 73.4 °F - 62.6 °F 69% 30.00 in 10.0 mi NW 17.3 mph - N/A   Clear
10:55 AM 75.2 °F - 60.8 °F 61% 30.00 in 10.0 mi NW 15.0 mph 21.9 mph N/A   Clear
11:15 AM 75.2 °F - 60.8 °F 61% 30.01 in 10.0 mi NW 15.0 mph 20.7 mph N/A   Partly Cloudy
11:35 AM 75.2 °F - 60.8 °F 61% 30.01 in 10.0 mi NW 13.8 mph - N/A   Partly Cloudy
11:55 AM 77.0 °F - 60.8 °F 57% 30.00 in 10.0 mi NW 15.0 mph 18.4 mph N/A   Clear
12:15 PM 78.8 °F - 60.8 °F 54% 30.00 in 10.0 mi NW 11.5 mph - N/A   Clear
12:35 PM 78.8 °F - 60.8 °F 54% 29.99 in 10.0 mi WNW 13.8 mph 18.4 mph N/A   Clear
12:55 PM 80.6 °F 81.5 °F 60.8 °F 51% 29.99 in 10.0 mi NW 11.5 mph 19.6 mph N/A   Clear
1:15 PM 82.4 °F 82.9 °F 60.8 °F 48% 29.99 in 10.0 mi NNW 11.5 mph 17.3 mph N/A   Clear
1:35 PM 82.4 °F 82.9 °F 60.8 °F 48% 29.99 in 10.0 mi NW 11.5 mph 16.1 mph N/A   Clear
1:55 PM 82.4 °F 82.9 °F 60.8 °F 48% 29.98 in 10.0 mi NNW 8.1 mph 17.3 mph N/A   Clear
2:15 PM 84.2 °F 83.8 °F 59.0 °F 42% 29.98 in 10.0 mi NNW 10.4 mph 16.1 mph N/A   Clear
2:35 PM 84.2 °F 84.4 °F 60.8 °F 45% 29.98 in 10.0 mi NNW 8.1 mph - N/A   Clear
2:55 PM 84.2 °F 83.5 °F 57.2 °F 40% 29.97 in 10.0 mi WNW 3.5 mph - N/A   Clear
3:15 PM 84.2 °F 83.5 °F 57.2 °F 40% 29.96 in 10.0 mi NW 8.1 mph - N/A   Clear
3:35 PM 86.0 °F 84.9 °F 57.2 °F 37% 29.96 in 10.0 mi West 5.8 mph 17.3 mph N/A   Clear
3:55 PM 86.0 °F 84.5 °F 55.4 °F 35% 29.94 in 10.0 mi WNW 5.8 mph - N/A   Clear
4:15 PM 86.0 °F 84.5 °F 55.4 °F 35% 29.93 in 10.0 mi SSW 3.5 mph - N/A   Clear
4:35 PM 87.8 °F 86.1 °F 55.4 °F 33% 29.93 in 10.0 mi NW 9.2 mph - N/A   Clear
4:55 PM 87.8 °F 86.1 °F 55.4 °F 33% 29.93 in 10.0 mi West 4.6 mph - N/A   Clear
5:15 PM 87.8 °F 86.1 °F 55.4 °F 33% 29.93 in 10.0 mi North 9.2 mph - N/A   Clear
5:35 PM 86.0 °F 84.2 °F 53.6 °F 33% 29.92 in 10.0 mi Calm Calm - N/A   Clear
5:55 PM 87.8 °F - 51.8 °F 29% 29.91 in 10.0 mi West 5.8 mph - N/A   Clear
6:15 PM 87.8 °F 85.7 °F 53.6 °F 31% 29.91 in 10.0 mi NNW 4.6 mph - N/A   Clear
6:35 PM 87.8 °F 85.7 °F 53.6 °F 31% 29.92 in 10.0 mi NE 11.5 mph - N/A Thunderstorm Clear
6:55 PM 84.2 °F 83.8 °F 59.0 °F 42% 29.93 in 10.0 mi NNE 12.7 mph - N/A Thunderstorm Clear
7:15 PM 82.4 °F 82.5 °F 59.0 °F 45% 29.93 in 10.0 mi ENE 6.9 mph - N/A   Clear
7:35 PM 80.6 °F 80.8 °F 57.2 °F 45% 29.93 in 10.0 mi NE 12.7 mph - N/A   Clear
7:55 PM 78.8 °F - 57.2 °F 47% 29.93 in 10.0 mi East 5.8 mph - N/A   Clear
8:15 PM 77.0 °F - 59.0 °F 54% 29.93 in 10.0 mi ENE 4.6 mph - N/A   Clear
8:35 PM 77.0 °F - 59.0 °F 54% 29.94 in 10.0 mi East 4.6 mph - N/A   Clear
8:55 PM 73.4 °F - 55.4 °F 53% 29.95 in 10.0 mi East 9.2 mph - N/A   Clear
9:15 PM 75.2 °F - 55.4 °F 50% 29.96 in 10.0 mi East 6.9 mph - N/A   Partly Cloudy
9:35 PM 73.4 °F - 55.4 °F 53% 29.97 in 10.0 mi ENE 8.1 mph - N/A   Scattered Clouds
9:55 PM 71.6 °F - 55.4 °F 57% 29.98 in 10.0 mi NNE 4.6 mph - N/A   Scattered Clouds
10:15 PM 71.6 °F - 57.2 °F 60% 30.00 in 10.0 mi North 13.8 mph 17.3 mph N/A Thunderstorm Thunderstorm
10:35 PM 71.6 °F - 57.2 °F 60% 30.00 in 10.0 mi NE 11.5 mph 23.0 mph N/A Thunderstorm Mostly Cloudy
10:55 PM 71.6 °F - 55.4 °F 57% 30.00 in 10.0 mi NNE 3.5 mph - N/A Thunderstorm Thunderstorm
11:15 PM 71.6 °F - 55.4 °F 57% 30.00 in 10.0 mi ESE 6.9 mph - N/A Thunderstorm Thunderstorm
11:35 PM 71.6 °F - 55.4 °F 57% 30.00 in 10.0 mi ESE 4.6 mph - N/A Thunderstorm Scattered Clouds
11:55 PM 69.8 °F - 55.4 °F 60% 29.99 in 10.0 mi Calm Calm - N/A Thunderstorm Clear